EW5297 Weather Reports


Display with metric or nautical units.
time (UTC)temp
F
wind
direction
speed
MPH
gust
MPH
rain 1hr
in
rain 24hr
in
rain mn
in
humidity
%
barometer
mb
20260905234819 77 184 1.0 2.0 0.00 0.00 0.00 51 1013.0
20260905233321 75 184 1.0 2.0 0.00 0.00 0.00 50 1013.1
20260905231819 73 178 1.0 2.0 0.00 0.00 0.00 58 1013.1
20260905230315 72 154 1.0 2.0 0.00 0.00 0.00 65 1013.0
20260905224816 70 191 0.0 2.0 0.00 0.00 0.00 74 1012.8
20260905223315 67 159 4.0 5.0 0.00 0.00 0.00 75 1013.0
20260905221815 65 154 2.0 3.0 0.00 0.00 0.00 81 1012.9
20260905220321 62 322 2.0 3.0 0.00 0.00 0.00 87 1012.7
20260905214822 61 315 1.0 3.0 0.00 0.00 0.00 88 1012.6
20260905213325 59 344 2.0 4.0 0.00 0.00 0.00 89 1012.4
20260905211825 58 335 2.0 5.0 0.00 0.00 0.00 89 1012.2
20260905210321 57 323 2.0 3.0 0.00 0.00 0.00 89 1012.2
20260905204822 56 317 1.0 2.0 0.00 0.00 0.00 89 1012.1
20260905203318 56 317 1.0 2.0 0.00 0.00 0.00 89 1011.8
20260905201819 56 317 1.0 2.0 0.00 0.00 0.00 88 1011.7
20260905200317 56 315 1.0 2.0 0.00 0.00 0.00 87 1011.7
20260905194814 57 309 2.0 3.0 0.00 0.00 0.00 87 1011.5
20260905193315 57 311 0.0 0.0 0.00 0.00 0.00 87 1011.2
20260905191813 56 313 0.0 1.0 0.00 0.00 0.00 88 1010.7
20260905190329 57 310 1.0 2.0 0.00 0.00 0.00 88 1010.8
20260905184810 57 311 1.0 2.0 0.00 0.00 0.00 87 453.3
20260905183327 57 323 2.0 3.0 0.00 0.00 0.00 87 1010.9
20260905181849 57 298 1.0 3.0 0.00 0.00 0.00 86 960.0
20260905180326 58 313 1.0 2.0 0.00 0.00 0.00 85 1010.9
20260905174844 58 322 1.0 3.0 0.00 0.00 0.00 86 579.0
20260905173325 59 315 0.0 2.0 0.00 0.00 0.00 85 1041.1
20260905171821 58 319 1.0 3.0 0.00 0.00 0.00 85 507.2
20260905170317 59 313 1.0 2.0 0.00 0.00 0.00 85
20260905164819 58 318 1.0 3.0 0.00 0.00 0.00 85 1011.2
20260905163317 59 316 1.0 3.0 0.00 0.00 0.00 85 1081.6
20260905161816 59 315 1.0 2.0 0.00 0.00 0.00 84 1011.2
20260905160314 60 317 2.0 2.0 0.00 0.00 0.00 82 771.8
20260905154811 60 313 1.0 2.0 0.00 0.00 0.00 81 1011.3
20260905153311 61 313 1.0 2.0 0.00 0.00 0.00 81 1011.4
20260905151850 62 312 1.0 2.0 0.00 0.00 0.00 78 963.6
20260905150325 62 319 1.0 2.0 0.00 0.00 0.00 76 323.4
20260905144826 63 319 1.0 2.0 0.00 0.00 0.00 74 508.1
20260905141813 64 321 3.0 5.0 0.00 0.00 0.00 71 1081.7
20260905140350 63 339 2.0 3.0 0.00 0.00 0.00 72 509.6
20260905134828 65 316 2.0 3.0 0.00 0.00 0.00 73 1011.9
20260905133329 65 329 2.0 6.0 0.00 0.00 0.00 73 1012.1
20260905131826 66 321 1.0 4.0 0.00 0.00 0.00 71 1012.0
20260905130324 66 340 1.0 2.0 0.00 0.00 0.00 70 1011.8
20260905124824 67 340 0.0 4.0 0.00 0.00 0.00 68 1011.7
20260905121827 69 331 1.0 5.0 0.00 0.00 0.00 67 896.9
20260905120329 66 323 3.0 9.0 0.00 0.00 0.00 76 1013.1
20260905114827 63 310 2.0 3.0 0.00 0.00 0.00 82 509.7
20260905113329 64 319 2.0 8.0 0.00 0.00 0.00 81 958.5
20260905111827 64 320 3.0 5.0 0.00 0.00 0.00 80 454.4
20260905110346 64 311 3.0 4.0 0.00 0.00 0.00 80 1012.0
20260905104826 64 325 2.0 4.0 0.00 0.00 0.00 80 1012.3
20260905103323 64 312 2.0 4.0 0.00 0.00 0.00 80 1012.5
20260905101823 64 320 2.0 5.0 0.00 0.00 0.00 80 1083.5
20260905100345 65 309 2.0 4.0 0.00 0.00 0.00 81 1012.8
20260905094823 65 304 2.0 5.0 0.00 0.00 0.00 81 1012.7
20260905093326 65 313 2.0 5.0 0.00 0.00 0.00 82 960.1
20260905091825 64 304 2.0 3.0 0.00 0.00 0.00 83 1012.6
20260905090321 65 311 1.0 4.0 0.00 0.00 0.00 82 518.7
20260905084843 65 316 1.0 2.0 0.00 0.00 0.00 83 1012.6
20260905083318 65 316 0.0 0.0 0.00 0.00 0.00 82 1012.5
20260905080345 67 316 0.0 2.0 0.00 0.00 0.00 80 1012.3
20260905074822 68 316 0.0 1.0 0.00 0.00 0.00 78 1012.3
20260905073344 69 316 1.0 1.0 0.00 0.00 0.00 76 1012.0
20260905071820 70 316 1.0 2.0 0.00 0.00 0.00 73 1011.8
20260905070340 71 316 1.0 2.0 0.00 0.00 0.00 70 1011.7
20260905064838 73 316 1.0 2.0 0.00 0.00 0.00 68 511.1
20260905063316 75 316 0.0 2.0 0.00 0.00 0.00 67 1011.4
20260905061814 76 316 1.0 2.0 0.00 0.00 0.00 64 1011.6
20260905054825 81 327 1.0 3.0 0.00 0.00 0.00 56 1011.3
20260905053322 81 321 2.0 4.0 0.00 0.00 0.00 49 1011.4
20260905051825 81 328 2.0 5.0 0.00 0.00 0.00 49 1011.3
20260905050323 80 313 2.0 3.0 0.00 0.00 0.00 50 1011.6
20260905044847 82 321 1.0 3.0 0.00 0.00 0.00 45 1011.5
20260905043321 83 295 2.0 3.0 0.00 0.00 0.00 53 1011.5
20260905041818 83 19 1.0 5.0 0.00 0.00 0.00 48 1011.7
20260905040319 84 13 2.0 6.0 0.00 0.00 0.00 46 1011.8
20260905034814 84 19 2.0 7.0 0.00 0.00 0.00 46 1012.1
20260905033315 85 32 1.0 2.0 0.00 0.00 0.00 46 1012.4
20260905031813 86 35 1.0 2.0 0.00 0.00 0.00 41 1012.5
20260905030329 86 54 1.0 3.0 0.00 0.00 0.00 43 1012.9
20260905024831 85 314 2.0 8.0 0.00 0.00 0.00 48 1013.2
20260905023330 85 332 2.0 9.0 0.00 0.00 0.00 43 864.1
20260905021826 84 294 2.0 4.0 0.00 0.00 0.00 51 719.2
20260905020327 83 351 1.0 3.0 0.00 0.00 0.00 46 716.9
20260905014824 82 37 0.0 2.0 0.00 0.00 0.00 47 1014.9
20260905013324 81 37 1.0 2.0 0.00 0.00 0.00 48 511.6
20260905011820 80 37 0.0 2.0 0.00 0.00 0.00 50 810.1
20260905010318 80 37 1.0 2.0 0.00 0.00 0.00 51 1016.0
20260905004841 80 315 1.0 2.0 0.00 0.00 0.00 65 1016.2
20260905003317 78 324 1.0 2.0 0.00 0.00 0.00 60
20260905001814 76 335 1.0 4.0 0.00 0.00 0.00 69 1088.1
20260905000318 73 321 0.0 0.0 0.00 0.00 0.00 75 952.7